• Join FlightAware (Why Join?)
  • Login
  • US Flag GB Flag 
04:39 EDT


 

Airport Tracker/Info


-or-


 

Live Flight TrackerFlight Track Log ✈ UAL481 ✈ 26-Jun-2013 ✈ KALB - KORD

Flight Track Log - Related Links

Times and Time Zones

All times are in EDT time to prevent confusion due to time zone crossing. See the UAL481 flight status page for this flight to view local times or setup timezone preferences in your user account.

Time Position Orientation Groundspeed Altitude Reporting Facility
EDT Latitude Longitude Course Direction KTS MPH feet Rate Location/Type
19:56 42.7236 -73.8081 324° Northwest 172 198 1,300  Level Boston Center
19:57 42.7103 -73.8642 252° West 235 270 3,100 2,340 Climbing Boston Center
19:58 42.7842 -73.9592 317° Northwest 277 319 7,300 3,180 Climbing Boston Center
19:59 42.8436 -74.0286 319° Northwest 277 319 10,800 2,580 Climbing Boston Center
20:00 42.8467 -74.4131 283° West  Level FlightAware Approximate
20:00 42.9072 -74.1097 317° Northwest 293 337 12,500  Level Boston Center
20:01 42.8693 -74.5359 324° Northwest  Level FlightAware Approximate
20:01 42.9786 -74.1997 317° Northwest 358 412 15,300  Level Boston Center
20:02 43.0264 -74.3458 294° West 392 451 18,600 3,060 Climbing Boston Center
20:03 43.0364 -74.4911 275° West 399 459 21,500 2,160 Climbing Boston Center
20:04 43.0503 -74.6422 277° West 409 471 23,000 1,380 Climbing Boston Center
20:05 43.0617 -74.8017 276° West 414 476 24,300 1,320 Climbing Boston Center
20:06 43.0778 -75.0156 276° West 428 493 26,000 1,620 Climbing Boston Center
20:07 43.0906 -75.1894 276° West 447 514 27,900 1,500 Climbing Boston Center
20:08 43.1031 -75.3522 276° West 447 514 29,100 1,020 Climbing Boston Center
20:09 43.1133 -75.5206 275° West 447 514 30,000 900 Climbing Boston Center
20:10 43.1253 -75.6833 276° West 447 514 30,900 1,020 Climbing Boston Center
20:11 43.1372 -75.8519 276° West 441 507 32,100 1,200 Climbing Boston Center
20:13 43.1333 -76.0833 269° West 430 495 34,100 720 Climbing Toronto Center
20:14 43.1500 -76.2500 278° West 430 495 34,100  Level Toronto Center
20:15 43.1500 -76.4167 270° West 440 506 34,100  Level Toronto Center
20:16 43.1333 -76.6000 263° West 440 506 34,100  Level Toronto Center
20:17 43.1500 -76.7500 279° West 440 506 34,100  Level Toronto Center
20:18 43.1500 -76.9167 270° West 440 506 34,100  Level Toronto Center
20:19 43.1583 -77.1792 273° West 443 510 34,100  Level Cleveland Center
20:20 43.1569 -77.3472 269° West 443 510 34,100 -60 Level Cleveland Center
20:21 43.1553 -77.5153 269° West 443 510 34,000  Descending Cleveland Center
20:22 43.1533 -77.6775 269° West 443 510 34,100  Climbing Cleveland Center
20:23 43.1531 -77.8456 270° West 443 510 34,100  Level Cleveland Center
20:24 43.1506 -78.0078 269° West 443 510 34,100  Level Cleveland Center
20:25 43.1458 -78.1758 268° West 443 510 34,100  Level Cleveland Center
20:26 43.1431 -78.3411 269° West 443 510 34,100  Level Cleveland Center
20:27 43.1378 -78.5092 268° West 443 510 34,100  Level Cleveland Center
20:28 43.1344 -78.6744 268° West 443 510 34,100  Level Cleveland Center
20:29 43.1308 -78.8450 268° West 443 510 34,100  Level Cleveland Center
20:30 43.1167 -78.9333 258° West 440 506 34,100  Level Toronto Center
20:31 43.1167 -79.0833 270° West 440 506 34,100  Level Toronto Center
20:32 43.1000 -79.2500 262° West 440 506 34,100 -60 Level Toronto Center
20:33 43.1000 -79.4333 270° West 440 506 34,000  Descending Toronto Center
20:34 43.1000 -79.5833 270° West 440 506 34,100  Climbing Toronto Center
20:35 43.0833 -79.7667 263° West 430 495 34,100  Level Toronto Center
20:36 43.0833 -79.9333 270° West 430 495 34,100  Level Toronto Center
20:37 43.0833 -80.0833 270° West 430 495 34,100  Level Toronto Center
20:38 43.0667 -80.2500 262° West 430 495 34,100 -60 Level Toronto Center
20:39 43.0667 -80.4167 270° West 430 495 34,000  Descending Toronto Center
20:40 43.0500 -80.5667 261° West 430 495 34,100  Climbing Toronto Center
20:41 43.0500 -80.7500 270° West 440 506 34,100 -60 Level Toronto Center
20:42 43.0333 -80.9167 262° West 440 506 34,000  Descending Toronto Center
20:43 43.0167 -81.1000 263° West 440 506 34,100  Climbing Toronto Center
20:44 43.0167 -81.2500 270° West 440 506 34,100  Level Toronto Center
20:45 43.0167 -81.4167 270° West 440 506 34,100 -60 Level Toronto Center
20:46 43.0167 -81.6000 270° West 440 506 34,000  Descending Toronto Center
20:47 43.0167 -81.7500 270° West 450 518 34,100  Climbing Toronto Center
20:48 43.0000 -81.9333 263° West 450 518 34,100  Level Toronto Center
20:49 43.0000 -82.1000 270° West 450 518 34,100  Level Toronto Center
20:50 43.0000 -82.2500 270° West 440 506 34,100  Level Toronto Center
20:51 43.0000 -82.4333 270° West 440 506 34,100  Level Toronto Center
20:52 43.0000 -82.6000 270° West 440 506 34,100  Level Toronto Center
20:53 43.0014 -82.7039 271° West 441 507 34,100 -120 Level Cleveland Center
20:54 42.9961 -82.8711 268° West 441 507 34,000  Descending Cleveland Center
20:55 42.9906 -83.0411 267° West 441 507 34,100  Climbing Cleveland Center
20:56 42.9867 -83.2086 268° West 441 507 34,000 -540 Descending Cleveland Center
20:57 42.9808 -83.3758 267° West 441 507 33,100 -960 Descending Cleveland Center
20:58 42.9744 -83.5458 267° West 448 516 32,100 -540 Descending Cleveland Center
20:59 42.9678 -83.7158 267° West 448 516 32,100  Level Cleveland Center
21:00 42.9528 -83.8853 263° West 453 521 32,100 -60 Level Cleveland Center
21:01 42.9372 -84.0544 263° West 458 527 32,000  Descending Cleveland Center
21:02 42.9194 -84.2267 262° West 458 527 32,100  Climbing Cleveland Center
21:03 42.9044 -84.3731 262° West 463 533 32,100  Level Cleveland Center
21:04 42.8883 -84.5394 263° West 457 526 32,100  Level Cleveland Center
21:05 42.8617 -84.8000 262° West 452 520 32,100  Level Chicago Center
21:06 42.8447 -84.9678 262° West 448 516 32,100 -180 Level Chicago Center
21:07 42.8261 -85.1358 261° West 448 516 31,800 -840 Descending Chicago Center
21:08 42.8083 -85.3033 262° West 447 514 30,400 -1,500 Descending Chicago Center
21:09 42.7894 -85.4719 261° West 449 517 28,700 -1,800 Descending Chicago Center
21:10 42.7608 -85.6397 257° West 452 520 26,700 -2,160 Descending Chicago Center
21:11 42.7253 -85.8350 256° West 442 509 24,300 -2,040 Descending Chicago Center
21:12 42.6975 -85.9906 256° West 424 488 22,500 -1,680 Descending Chicago Center
21:13 42.6700 -86.1400 256° West 410 472 20,900 -1,260 Descending Chicago Center
21:14 42.6439 -86.2867 256° West 400 460 20,000 -1,080 Descending Chicago Center
21:15 42.6161 -86.4286 255° West 390 449 18,700 -1,500 Descending Chicago Center
21:17 42.5894 -86.5714 256° West 390 449 16,900 -1,740 Descending Chicago Center
21:18 42.5625 -86.7106 255° West 384 442 15,200 -1,860 Descending Chicago Center
21:19 42.5222 -86.8708 251° West 378 435 13,100 -1,980 Descending Chicago Center
21:20 42.4858 -87.0003 249° West 371 427 11,100 -1,500 Descending Chicago Center
21:21 42.4511 -87.1217 249° West 355 409 10,000 -960 Descending Chicago Center
21:22 42.4225 -87.2289 250° West 318 366 9,200 -1,200 Descending Chicago Center
21:23 42.3761 -87.3142 234° Southwest 305 351 7,600 -1,620 Descending Chicago Center
21:24 42.2839 -87.3486 195° South 293 337 5,900 -1,260 Descending Chicago Center
21:25 42.2075 -87.3700 192° South 282 325 5,000 -900 Descending Chicago Center
21:26 42.1294 -87.3764 183° South 279 321 4,100 -540 Descending Chicago Center
21:27 42.0558 -87.3853 185° South 273 314 4,000 -60 Descending Chicago Center
21:28 42.0092 -87.4300 215° Southwest 238 274 4,000  Level Chicago Center
21:29 42.0028 -87.5269 265° West 221 254 4,000  Level Chicago Center
21:30 42.0022 -87.6072 269° West 220 253 4,000  Level Chicago Center